Regional Weather Roundup
Issued by NWS Goodland, KS

Home | Current Version | Previous Version | Graphics & Text | Print | Product List | Glossary On
Versions: 1 2 3 4 5 6 7 8 9 10 11 12 13 14 15 16 17 18 19 20 21 22 23 24 25 26 27 28 29 30 31 32 33 34 35 36 37 38 39 40 41 42 43 44 45 46 47 48 49 50
000
ASUS43 KGLD 270959
RWRGLD

GOODLAND FORECAST AREA HOURLY WEATHER ROUNDUP
NATIONAL WEATHER SERVICE GOODLAND KS
400 AM MDT TUE JUN 27 2017

...OFFICIAL OBSERVATIONS...

CITY           SKY/WX    TMP DP  RH WIND       PRES   REMARKS
GOODLAND KS    CLEAR     58  58 100 SE9       30.03F
HILL CITY KS   CLOUDY    60  60 100 E8        30.06F FOG
IMPERIAL NEB   CLOUDY    61  57  87 S20G25    30.04F
MCCOOK NEB     CLEAR     60  59  96 SE9       30.05F
AKRON CO       CLOUDY    61  57  87 SE21      30.05F
BURLINGTON CO  CLOUDY    60  59  96 SE13      30.06F
LIMON CO       MOCLDY    53  53 100 SE6       30.10F
$$

...UNOFFICIAL OBSERVATIONS...

CITY           SKY/WX    TMP DP  RH WIND       PRES   REMARKS
LENORA KS        N/A     60  32  34 MISG        N/A
NORTON KS      PTCLDY    57  54  88 E10       30.05
SHARON SPRINGS   N/A     59  57  92 E6          N/A
TRENTON NEB      N/A     60  32  34 S8          N/A
KIT CARSON CO    N/A     58  54  87 CALM        N/A
YUMA CO        CLOUDY    59  52  77 SE10      30.06S
$$



USA.gov is the U.S. government's official web portal to all federal, state and local government web resources and services.